Skip Page Navigation
NASA JPL Caltech
NASA Logo - Jet Propulsion Laboratory + View the NASA Portal
+ Center for Near-Earth Object Studies
JPL Home Earth Solar System Stars & Galaxies Technology
JPL Solar System Dynamics
BODIES ORBITS EPHEMERIDES TOOLS PHYSICAL DATA DISCOVERY FAQ SITE MAP
JPL Small-Body Database Browser
Search: [ help ]  
413063 (2001 SC36)
Classification: Main-belt Asteroid          SPK-ID: 2413063
Ephemeris | Orbit Diagram | Orbital Elements | Mission Design | Physical Parameters | Discovery Circumstances ]

[ show orbit diagram ]
Orbital Elements at Epoch 2459000.5 (2020-May-31.0) TDB
Reference: JPL 15 (heliocentric ecliptic J2000)
 Element Value Uncertainty (1-sigma)   Units 
e .1643562019808368 7.2373e-08  
a 2.630193498844005 1.9422e-08 au
q 2.197904884899315 1.8933e-07 au
i 2.371609991401268 5.4441e-06 deg
node 140.5871952623535 0.00013431 deg
peri 218.6208926203023 0.00013538 deg
M 145.4275103659673 1.6444e-05 deg
tp 2458371.103903109575
(2018-Sep-09.60390311)
6.8843e-05 TDB
period 1558.044927746886
4.27
1.7258e-05
4.725e-08
d
yr
n .2310588055510067 2.5593e-09 deg/d
Q 3.062482112788693 2.2615e-08 au
  Orbit Determination Parameters
   # obs. used (total)      211  
   data-arc span      6713 days (18.38 yr)  
   first obs. used      2001-09-16  
   last obs. used      2020-02-02  
   planetary ephem.      DE431  
   SB-pert. ephem.      SB431-N16  
   condition code      0  
   norm. resid. RMS      .67744  
   source      ORB  
   producer      Otto Matic  
   solution date      2020-Feb-26 06:57:47  

Additional Information
 Earth MOID = 1.19487 au 
 Jupiter MOID = 2.38523 au 
 T_jup = 3.380 
[ show covariance matrix ]

Ephemeris | Orbit Diagram | Orbital Elements | Mission Design | Physical Parameters | Discovery Circumstances ]

Physical Parameter Table
Parameter Symbol Value Units Sigma Reference Notes
absolute magnitude H 17.0   n/a MPO472159  

413063 (2001 SC36)          Discovered 2001-Sep-16 by LINEAR at Socorro
Reference: Last Updated: 2014-11-10

Alternate Designations
 2001 SC36 = 2007 BE76 
Ephemeris | Orbit Diagram | Orbital Elements | Mission Design | Physical Parameters | Discovery Circumstances ]
ABOUT SSD CREDITS/AWARDS PRIVACY/COPYRIGHT GLOSSARY LINKS
FirstGov 2020-Jul-09 21:49 UT
(server date/time)  
NASA Home Page
Site Manager:   Ryan S. Park
Webmaster  Alan B. Chamberlin